DW8673 Jerrabomberra AU current weather conditions

sailwx.info

Wind from 090

Air temperature 3.3° C
Dewpoint -1.2° C

Last reported at 2014-Aug-27 14:43 UTC.
Time now 2014-Aug-27 15:15 UTC

Location: S 35°23' E 149°12'.
View on Google Maps.

See reports from other nearby stations

  
Tides and Currents Weather Stations Pressure Air Temp Water Temp Dewpoint Dewpoint Depression Visibility Wind Speed Wind Dir Waves Ship Positions
date/time (UTC)wind fromknots sea level pressurealtimeterstation pressurevisibilityair tempwater tempwave heightnotes
2014-Aug-27 14:43 090 3.3
2014-Aug-27 14:33 158 3.3
2014-Aug-27 14:13 202 3.9
2014-Aug-27 14:03 248 4.4
2014-Aug-27 13:43 090 4.4
2014-Aug-27 13:33 261 0 gusting 0 5.0
2014-Aug-27 13:13 158 5.0
2014-Aug-27 13:03 245 5.6
2014-Aug-27 12:43 202 0 gusting 0 5.6
2014-Aug-27 12:33 090 5.6
2014-Aug-27 12:13 248 0 gusting 1 6.7
2014-Aug-27 12:03 089 0 gusting 2 6.7
2014-Aug-27 11:43 112 1 gusting 4 7.8
2014-Aug-27 11:33 113 0 gusting 2 7.8
2014-Aug-27 11:13 126 0 gusting 4 7.8
2014-Aug-27 11:03 117 1 gusting 2 7.8
2014-Aug-27 10:43 141 2 gusting 6 7.8
2014-Aug-27 10:33 127 8.3
2014-Aug-27 10:13 114 0 gusting 2 8.3
2014-Aug-27 10:03 112 0 gusting 5 8.3
2014-Aug-27 09:43 094 0 gusting 1 7.8
2014-Aug-27 09:33 329 7.8
2014-Aug-27 09:13 111 8.3
2014-Aug-27 09:03 088 0 gusting 1 8.3
2014-Aug-27 08:43 045 8.9
2014-Aug-27 08:33 222 0 gusting 1 9.4
2014-Aug-27 08:13 218 10.0
2014-Aug-27 08:03 248 10.0
2014-Aug-27 07:43 155 1 gusting 2 11.1
2014-Aug-27 07:33 179 11.7
2014-Aug-27 07:13 079 1 gusting 5 13.3
2014-Aug-27 07:03 079 1 gusting 6 14.4
2014-Aug-27 06:43 119 2 gusting 6 15.6
2014-Aug-27 06:33 151 2 gusting 6 16.1
2014-Aug-27 06:13 090 2 gusting 6 15.0
2014-Aug-27 06:03 098 2 gusting 6 15.6
2014-Aug-27 05:43 110 2 gusting 5 16.1
2014-Aug-27 05:33 205 2 gusting 6 15.6
2014-Aug-27 05:13 095 2 gusting 5 18.9
2014-Aug-27 05:03 100 1 gusting 6 18.3
2014-Aug-27 04:43 116 2 gusting 5 19.4
2014-Aug-27 04:33 121 2 gusting 5 17.8
2014-Aug-27 04:13 083 1 gusting 6 19.4
2014-Aug-27 04:03 096 1 gusting 6 17.8
2014-Aug-27 03:43 090 1 gusting 5 17.2
2014-Aug-27 03:33 110 2 gusting 11 17.2
2014-Aug-27 03:13 074 2 gusting 5 19.4
2014-Aug-27 03:03 161 2 gusting 6 18.9
2014-Aug-27 02:43 114 1 gusting 4 18.9
2014-Aug-27 02:33 116 1 gusting 11 17.8
2014-Aug-27 02:13 114 2 gusting 7 18.9
2014-Aug-27 02:03 071 2 gusting 5 18.3
2014-Aug-27 01:43 130 1 gusting 5 18.9
2014-Aug-27 01:33 121 1 gusting 7 18.3
2014-Aug-27 01:13 114 2 gusting 6 17.2
2014-Aug-27 01:03 157 1 gusting 6 16.7
2014-Aug-27 00:43 119 1 gusting 4 15.0
2014-Aug-27 00:33 175 3 gusting 8 13.9
2014-Aug-27 00:13 205 4 gusting 6 16.1
2014-Aug-27 00:03 137 1 gusting 6 15.0
2014-Aug-26 23:43 161 2 gusting 6 13.3
2014-Aug-26 23:33 196 1 gusting 7 13.9
2014-Aug-26 23:13 228 1 gusting 6 11.7
2014-Aug-26 23:03 113 2 gusting 5 10.6
2014-Aug-26 22:43 103 1 gusting 2 10.0
2014-Aug-26 22:33 181 0 gusting 2 9.4
2014-Aug-26 22:13 129 0 gusting 2 8.9
2014-Aug-26 22:03 189 1 gusting 4 8.9
2014-Aug-26 21:43 198 0 gusting 2 8.3
2014-Aug-26 21:33 211 7.8
2014-Aug-26 21:13 167 6.7
2014-Aug-26 21:03 166 7.2
2014-Aug-26 20:43 142 1 gusting 4 6.7
2014-Aug-26 20:33 126 1 gusting 4 6.1
2014-Aug-26 20:13 161 0 gusting 1 4.4
2014-Aug-26 20:03 135 4.4
2014-Aug-26 19:43 248 4.4
2014-Aug-26 19:33 200 4.4
2014-Aug-26 19:13 135 5.0
2014-Aug-26 19:03 135 5.0
2014-Aug-26 18:43 180 4.4
2014-Aug-26 18:33 180 4.4
2014-Aug-26 18:13 158 4.4
2014-Aug-26 18:03 135 5.0
2014-Aug-26 17:43 185 1 gusting 1 5.6
2014-Aug-26 17:33 248 5.6
2014-Aug-26 17:13 248 6.1
2014-Aug-26 17:03 254 0 gusting 1 6.7
2014-Aug-26 16:43 245 7.8
2014-Aug-26 16:33 182 0 gusting 4 7.8
2014-Aug-26 16:13 198 1 gusting 5 7.8
2014-Aug-26 16:03 111 1 gusting 4 8.3
2014-Aug-26 15:43 117 1 gusting 5 8.9
2014-Aug-26 15:33 153 1 gusting 5 8.9
2014-Aug-26 15:13 130 2 gusting 5 9.4
2014-Aug-26 15:03 151 1 gusting 5 9.4
2014-Aug-26 14:43 160 2 gusting 6 8.9
2014-Aug-26 14:33 137 1 gusting 5 8.9
2014-Aug-26 14:13 258 0 gusting 5 9.4
2014-Aug-26 14:03 135 1 gusting 4 9.4
2014-Aug-26 13:43 126 2 gusting 6 9.4
2014-Aug-26 13:33 105 1 gusting 5 9.4
2014-Aug-26 13:13 101 1 gusting 5 9.4
2014-Aug-26 13:03 128 2 gusting 6 9.4
2014-Aug-26 12:43 108 2 gusting 5 8.9
2014-Aug-26 12:33 148 1 gusting 6 8.9
2014-Aug-26 12:13 125 2 gusting 6 9.4
2014-Aug-26 12:03 117 2 gusting 5 9.4
2014-Aug-26 11:43 123 2 gusting 5 9.4
2014-Aug-26 11:33 172 2 gusting 6 9.4
2014-Aug-26 11:13 143 0 gusting 2 9.4
2014-Aug-26 11:03 145 1 gusting 5 9.4
2014-Aug-26 10:43 096 2 gusting 5 9.4
2014-Aug-26 10:33 084 2 gusting 5 9.4
2014-Aug-26 10:13 123 2 gusting 6 10.0
2014-Aug-26 10:03 214 0 gusting 6 10.0
2014-Aug-26 09:43 197 1 gusting 4 10.6
2014-Aug-26 09:33 131 2 gusting 6 10.0
2014-Aug-26 09:13 163 2 gusting 6 10.6
2014-Aug-26 09:03 111 2 gusting 8 10.6
2014-Aug-26 08:43 132 2 gusting 6 10.0
2014-Aug-26 08:33 109 2 gusting 5 10.0
2014-Aug-26 08:13 163 0 gusting 1 9.4
2014-Aug-26 08:03 255 0 gusting 2 10.0
2014-Aug-26 07:43 181 0 gusting 1 10.6
2014-Aug-26 07:33 111 1 gusting 2 10.6
2014-Aug-26 07:13 102 0 gusting 4 11.1
2014-Aug-26 07:03 104 1 gusting 4 11.7
2014-Aug-26 06:43 125 1 gusting 6 12.2
2014-Aug-26 06:33 110 1 gusting 4 12.2
2014-Aug-26 06:13 110 1 gusting 5 12.2
2014-Aug-26 06:03 036 1 gusting 6 12.2
2014-Aug-26 05:43 075 1 gusting 5 12.2
2014-Aug-26 05:33 143 1 gusting 4 12.8
2014-Aug-26 05:13 096 1 gusting 5 12.8
2014-Aug-26 05:03 096 2 gusting 7 12.2
2014-Aug-26 04:43 098 2 gusting 5 12.2
2014-Aug-26 04:33 104 1 gusting 5 12.8
2014-Aug-26 04:13 109 1 gusting 6 14.4
2014-Aug-26 04:03 136 4 gusting 7 14.4
2014-Aug-26 03:43 133 1 gusting 6 14.4
2014-Aug-26 03:33 135 4 gusting 8 14.4
2014-Aug-26 03:13 107 2 gusting 6 15.6
2014-Aug-26 03:03 115 2 gusting 8 16.1
2014-Aug-26 02:43 077 3 gusting 12 16.7
2014-Aug-26 02:33 039 2 gusting 7 16.7
2014-Aug-26 02:13 114 3 gusting 6 16.1
2014-Aug-26 02:03 052 3 gusting 10 15.6
2014-Aug-26 01:43 070 1 gusting 12 14.4
2014-Aug-26 01:33 095 2 gusting 12 13.9
2014-Aug-26 01:13 082 2 gusting 4 13.9
2014-Aug-26 01:03 078 2 gusting 7 13.9
2014-Aug-26 00:43 089 4 gusting 6 13.9
2014-Aug-26 00:33 087 2 gusting 7 14.4
2014-Aug-26 00:13 131 4 gusting 8 14.4
2014-Aug-26 00:03 162 1 gusting 6 13.9
2014-Aug-25 23:43 071 2 gusting 7 12.2
2014-Aug-25 23:33 186 1 gusting 5 12.2
2014-Aug-25 23:13 108 2 gusting 5 11.7
2014-Aug-25 23:03 134 1 gusting 6 11.1
2014-Aug-25 22:43 164 4 gusting 7 10.0
2014-Aug-25 22:33 158 2 gusting 8 10.0
2014-Aug-25 22:13 130 2 gusting 5 9.4
2014-Aug-25 22:03 121 2 gusting 6 9.4
2014-Aug-25 21:43 136 3 gusting 6 9.4
2014-Aug-25 21:33 132 2 gusting 5 9.4
2014-Aug-25 21:13 136 2 gusting 6 8.9
2014-Aug-25 21:03 133 2 gusting 4 8.9
2014-Aug-25 20:43 136 1 gusting 6 8.9
2014-Aug-25 20:33 091 1 gusting 4 8.9
2014-Aug-25 20:13 087 0 gusting 4 8.9
2014-Aug-25 20:03 131 2 gusting 6 8.9
2014-Aug-25 19:43 143 2 gusting 5 8.9
2014-Aug-25 19:33 149 0 gusting 5 8.9
2014-Aug-25 19:13 126 1 gusting 4 8.9
2014-Aug-25 19:03 147 1 gusting 4 8.9
2014-Aug-25 18:43 157 0 gusting 2 8.3
2014-Aug-25 18:33 055 1 gusting 2 8.3
2014-Aug-25 18:13 209 1 gusting 5 8.9
2014-Aug-25 18:03 158 1 gusting 6 8.9
2014-Aug-25 17:43 160 3 gusting 8 8.9
2014-Aug-25 17:33 141 3 gusting 11 8.9
2014-Aug-25 17:13 115 2 gusting 6 8.9
2014-Aug-25 17:03 189 2 gusting 6 8.9
2014-Aug-25 16:43 130 2 gusting 6 8.9
2014-Aug-25 16:33 139 2 gusting 7 8.9
2014-Aug-25 16:13 146 3 gusting 7 8.9
2014-Aug-25 16:03 126 2 gusting 6 8.9
2014-Aug-25 15:43 125 1 gusting 4 8.3
2014-Aug-25 15:33 093 1 gusting 4 8.3
2014-Aug-25 15:13 212 1 gusting 2 8.3
2014-Aug-25 15:03 249 0 gusting 5 8.3